Location: Austin
(30.3000°N, 97.7500°W)
Time: 11:30:34
(UTC-05:00)

NOSS 0 Rocket - Pass Details

Date: 26 May 2023
Orbit: 937 x 952 km, 70.0° (Epoch: 30 May)

Event Time Altitude Azimuth Distance (km) Brightness Sun altitude
Exits shadow 22:17:45 - 198° (SSW) 3,156 6.4 -21.1°
Reaches altitude 10° 22:19:05 10° 198° (SSW) 2,655 6.0 -21.3°
Maximum altitude 22:25:15 87° 111° (ESE) 948 3.8 -22.3°
Drops below altitude 10° 22:31:26 10° 22° (NNE) 2,657 6.5 -23.2°
Sets 22:33:58 0° 22° (NNE) 3,602 7.3 -23.6°
